Location: Newark
(49.8969°N, 3.3422°E)
Time: 21:05:29
(UTC+00:00)

A-11 Canister half - Pass Details

Date: 31 January 2020
Orbit: 1517 x 1683 km, 47.2° (Epoch: 19 February)

Event Time Altitude Azimuth Distance (km) Brightness Sun altitude
Rises 02:36:45 0° 282° (WNW) 4,699 - -45.0°
Reaches altitude 10° 02:39:51 10° 279° (W) 3,701 - -44.5°
Maximum altitude 02:48:54 60° 203° (SSW) 1,703 - -43.3°
Exits shadow 02:53:57 29° 136° (SE) 2,508 10.1 -42.5°
Drops below altitude 10° 02:57:56 10° 126° (SE) 3,685 11.2 -42.0°
Sets 03:01:01 0° 123° (ESE) 4,677 11.9 -41.5°
